User: anonymous   Login
Location: Unspecified
(0.0000°N, 0.0000°E)
Time: 20:00:46
(UTC+00:00)
Language:

PAYLOAD F - Orbit

View from above orbital plane
View from above orbital plane
View from above satellite
View from above satellite

Ground track
Ground track

The orbit data is extracted from the following two-line orbital elements,

1 27060U 01058F   18171.70454465 +.00000018 +00000-0 +41302-4 0  9995
2 27060 082.5400 270.1733 0009407 086.0290 274.1883 12.62996191759734
Epoch (UTC): 20 June 2018 16:54:32
Eccentricity: 0.0009407
inclination: 82.5400°
perigee height: 1403 km
apogee height: 1418 km
right ascension of ascending node: 270.1733°
argument of perigee: 86.0290°
revolutions per day: 12.62996191
mean anomaly at epoch: 274.1883°
orbit number at epoch: 75973

The dashed part of the orbit path shows where the satellite is in the earth's shadow,  

DLR